Overview Statistics Trail Chart Weather Telemetry Raw packets
 

This is the latest recevied weather packets stored in our database for station/object WA1NHP. If no packets are shown the sender has not sent any weather packets the latest 10 day(s).

<< 32 33 34 35 36 37 38 >>
Time Temp. Humidity Pressure Rain* Wind** Luminosity Snow
1788136444 19.44° C 86% 1023.9 hPa 0 mm - 0 W/m² -
1788135844 20° C 87% 1023.9 hPa 0 mm - 0 W/m² -
1788135244 20° C 86% 1023.9 hPa 0 mm - 0 W/m² -
1788134644 20° C 87% 1023.9 hPa 0 mm - 0 W/m² -
1788134044 19.44° C 87% 1023.9 hPa 0 mm - 0 W/m² -
1788133444 20° C 87% 1023.9 hPa 0 mm - 0 W/m² -
1788132844 19.44° C 86% 1023.9 hPa 0 mm - 0 W/m² -
1788132257 19.44° C 86% 1023.9 hPa 0 mm - 0 W/m² -
1788131644 20° C 86% 1023.9 hPa 0 mm - 0 W/m² -
1788131045 20° C 85% 1023.9 hPa 0 mm - 0 W/m² -
1788130444 20° C 84% 1023.9 hPa 0 mm - 0 W/m² -
1788129843 20.56° C 83% 1023.9 hPa 0 mm - 14 W/m² -
1788129243 20.56° C 81% 1023.9 hPa 0 mm - 5 W/m² -
1788128644 20.56° C 80% 1023.9 hPa 0 mm - 14 W/m² -
1788128044 21.11° C 80% 1023.9 hPa 0 mm - 35 W/m² -
1788127444 21.11° C 79% 1023.9 hPa 0 mm - 51 W/m² -
1788126844 21.67° C 78% 1023.9 hPa 0 mm - 60 W/m² -
1788126245 21.67° C 77% 1023.9 hPa 0 mm - 54 W/m² -
1788125644 21.67° C 77% 1023.9 hPa 0 mm - 137 W/m² -
1788125044 21.67° C 78% 1023.9 hPa 0 mm - 53 W/m² -
1788124443 21.67° C 76% 1023.9 hPa 0 mm - 58 W/m² -
1788123844 21.67° C 76% 1023.9 hPa 0 mm - 200 W/m² -
1788123244 20.56° C 80% 1023.9 hPa 0 mm - 190 W/m² -
1788122643 20.56° C 79% 1023.9 hPa 0 mm - 42 W/m² -
1788122043 20.56° C 78% 1023.9 hPa 0 mm - 35 W/m² -

* Rain latest hour (hover to see other rain measurements)
** Current wind speed in m/s (hover to see current wind gust speed)